GW0774 Weather Reports


time (UTC)temp
C
wind
direction
speed
KPH
gust
KPH
rain 1hr
cm
rain 24hr
cm
rain mn
cm
humidity
%
barometer
mb
20260831233057 11 240 6.4 16.1 0.00 0.00 0.00 74 1011.7
20260831232536 11 239 8.0 16.1 0.00 0.00 0.00 75 1011.6
20260831232041 11 221 6.4 9.7 0.00 0.00 0.00 75 1011.7
20260831231556 11 234 6.4 9.7 0.00 0.00 0.00 75 1011.7
20260831231039 11 240 6.4 12.9 0.00 0.00 0.00 77 1011.6
20260831230536 11 223 6.4 12.9 0.00 0.00 0.00 79 1011.6
20260831230106 10 256 6.4 12.9 0.00 0.00 0.00 76 1011.6
20260831225538 10 236 4.8 8.0 0.00 0.00 0.00 76 1011.6
20260831225036 10 254 3.2 8.0 0.00 0.00 0.00 77 1011.5
20260831224550 10 206 1.6 6.4 0.00 0.00 0.00 75 1011.6
20260831224044 10 207 1.6 6.4 0.00 0.00 0.00 74 1011.4
20260831223542 10 109 3.2 6.4 0.00 0.00 0.00 75 1011.5
20260831223102 10 99 3.2 6.4 0.00 0.00 0.00 77 1011.4
20260831222539 10 86 0.0 6.4 0.00 0.00 0.00 77 1011.3
20260831222036 9 93 1.6 8.0 0.00 0.00 0.00 78 1011.3
20260831221624 9 92 3.2 9.7 0.00 0.00 0.00 76 1011.3
20260831221038 9 103 3.2 9.7 0.00 0.00 0.00 77 1011.2
20260831220536 8 90 0.0 11.3 0.00 0.00 0.00 79 1011.1
20260831220105 8 90 4.8 11.3 0.00 0.00 0.00 78 1011.1
20260831215539 8 108 3.2 8.0 0.00 0.00 0.00 81 1011.1
20260831215040 8 96 3.2 6.4 0.00 0.00 0.00 82 1011.2
20260831214559 8 92 3.2 6.4 0.00 0.00 0.00 80 1011.1
20260831214039 8 92 1.6 6.4 0.00 0.00 0.00 79 1011.2
20260831213537 8 92 1.6 4.8 0.00 0.00 0.00 78 1011.2
20260831213059 8 92 0.0 4.8 0.00 0.00 0.00 81 1011.1
20260831212537 8 91 0.0 4.8 0.00 0.00 0.00 80 1010.9
20260831212040 7 65 0.0 4.8 0.00 0.00 0.00 80 1010.8
20260831211554 7 55 1.6 6.4 0.00 0.00 0.00 79 1010.8
20260831211038 8 72 1.6 6.4 0.00 0.00 0.00 81 1010.7
20260831210536 7 88 1.6 6.4 0.00 0.00 0.00 83 1010.6
20260831210050 7 85 1.6 9.7 0.00 0.00 0.00 86 1010.5
20260831205539 7 89 3.2 9.7 0.00 0.00 0.00 86 1010.5
20260831205040 6 90 1.6 6.4 0.00 0.00 0.00 88 1010.6
20260831204604 6 88 1.6 6.4 0.00 0.00 0.00 90 1010.6
20260831204042 6 82 3.2 9.7 0.00 0.00 0.00 90 1010.6
20260831203540 6 0 1.6 9.7 0.00 0.00 0.00 93 1010.7
20260831203125 5 79 3.2 9.7 0.00 0.00 0.00 92 1010.7
20260831202538 5 0 3.2 4.8 0.00 0.00 0.00 92 1010.6
20260831202036 5 101 1.6 4.8 0.00 0.00 0.00 93 1010.6
20260831201557 4 99 3.2 4.8 0.00 0.00 0.00 93 1010.4
20260831201040 4 90 1.6 4.8 0.00 0.00 0.00 93 1010.2
20260831200539 4 101 3.2 8.0 0.00 0.00 0.00 93 1010.2
20260831200138 3 88 1.6 8.0 0.00 0.00 0.00 93 1010.3
20260831195541 3 96 3.2 3.2 0.00 0.00 0.00 93 1010.2
20260831195036 3 94 0.0 1.6 0.00 0.00 0.00 93 1010.0
20260831194620 3 94 0.0 1.6 0.00 0.00 0.00 94 1010.0
20260831194037 3 0 0.0 1.6 0.00 0.00 0.00 95 1010.0
20260831193535 3 0 0.0 4.8 0.00 0.00 0.00 95 1009.8
20260831193046 2 0 0.0 4.8 0.00 0.00 0.00 94 1009.8
20260831192543 2 94 1.6 4.8 0.00 0.00 0.00 94 1009.9
20260831192039 2 94 0.0 1.6 0.00 0.00 0.00 94 1009.8
20260831191559 2 0 0.0 1.6 0.00 0.00 0.00 94 1009.8
20260831191039 1 0 0.0 3.2 0.00 0.00 0.00 94 1009.5
20260831190540 1 94 0.0 4.8 0.00 0.00 0.00 94 1009.7
20260831190056 1 94 1.6 4.8 0.00 0.00 0.00 93 1009.5
20260831185537 1 93 3.2 4.8 0.00 0.00 0.00 92 1009.3
20260831185038 1 93 0.0 4.8 0.00 0.00 0.00 93 1009.2
20260831184552 2 0 1.6 4.8 0.00 0.00 0.00 93 1009.3
20260831184039 2 103 0.0 3.2 0.00 0.00 0.00 93 1009.3
20260831183540 2 0 0.0 1.6 0.00 0.00 0.00 93 1009.2
20260831183058 2 0 0.0 3.2 0.00 0.00 0.00 93 1008.9
20260831182540 2 0 0.0 6.4 0.00 0.00 0.00 94 1008.7
20260831182040 2 0 3.2 6.4 0.00 0.00 0.00 95 1008.7
20260831181551 2 106 1.6 3.2 0.00 0.00 0.00 95 1008.7
20260831181039 1 0 0.0 0.0 0.00 0.00 0.00 94 1008.7
20260831180539 1 0 0.0 3.2 0.00 0.00 0.00 94 1008.6
20260831175536 1 150 1.6 3.2 0.00 0.00 0.00 93 1008.6
20260831175037 1 153 0.0 1.6 0.00 0.00 0.00 93 1008.6
20260831174552 1 0 0.0 3.2 0.00 0.00 0.00 92 1008.4
20260831174039 1 153 1.6 3.2 0.00 0.00 0.00 93 1008.4
20260831173539 2 153 0.0 1.6 0.00 0.00 0.00 92 1008.5
20260831173103 2 0 0.0 1.6 0.00 0.00 0.00 93 1008.4
20260831172539 2 153 0.0 1.6 0.00 0.00 0.00 93 1008.4
20260831172041 2 154 0.0 0.0 0.00 0.00 0.00 92 1008.3
20260831171556 2 0 0.0 0.0 0.00 0.00 0.00 92 1008.5
20260831171038 2 0 0.0 0.0 0.00 0.00 0.00 93 1008.5
20260831170540 1 0 0.0 3.2 0.00 0.00 0.00 92 1008.5
20260831170052 1 0 0.0 3.2 0.00 0.00 0.00 91 1008.5
20260831165535 1 155 1.6 3.2 0.00 0.00 0.00 90 1008.5
20260831165037 2 155 0.0 1.6 0.00 0.00 0.00 91 1008.4
20260831164548 2 0 0.0 1.6 0.00 0.00 0.00 91 1008.1
20260831164039 2 0 0.0 1.6 0.00 0.00 0.00 92 1008.0
20260831163539 2 0 0.0 6.4 0.00 0.00 0.00 92 1008.0
20260831163057 2 109 3.2 6.4 0.00 0.00 0.00 90 1008.0
20260831162539 2 111 3.2 6.4 0.00 0.00 0.00 88 1008.0
20260831162038 3 67 0.0 3.2 0.00 0.00 0.00 90 1007.9
20260831161557 3 67 0.0 1.6 0.00 0.00 0.00 89 1007.6
20260831161038 3 0 0.0 1.6 0.00 0.00 0.00 90 1007.5
20260831160539 3 67 0.0 1.6 0.00 0.00 0.00 90 1007.4
20260831160058 4 67 0.0 1.6 0.00 0.00 0.00 90 1007.2
20260831155540 4 0 0.0 4.8 0.00 0.00 0.00 90 1007.2
20260831155040 4 0 0.0 4.8 0.00 0.00 0.00 90 1007.1
20260831154615 3 67 1.6 3.2 0.00 0.00 0.00 90 1007.1
20260831154041 4 0 0.0 3.2 0.00 0.00 0.00 88 1007.0
20260831153540 4 0 0.0 4.8 0.00 0.00 0.00 89 1006.9
20260831153059 5 67 1.6 4.8 0.00 0.00 0.00 90 1007.0
20260831152538 4 67 3.2 6.4 0.00 0.00 0.00 90 1006.8
20260831152036 5 78 3.2 6.4 0.00 0.00 0.00 90 1006.6
20260831151555 5 71 3.2 6.4 0.00 0.00 0.00 90 1006.6
20260831151147 5 71 3.2 6.4 0.00 0.00 0.00 89 1006.7
20260831150539 5 74 3.2 3.2 0.00 0.00 0.00 89 1006.5
20260831150053 5 0 0.0 1.6 0.00 0.00 0.00 89 1006.4
20260831145539 5 74 0.0 3.2 0.00 0.00 0.00 89 1006.5
20260831145039 5 74 0.0 3.2 0.00 0.00 0.00 89 1006.4
20260831144549 5 74 1.6 3.2 0.00 0.00 0.00 89 1006.3
20260831144039 5 74 1.6 4.8 0.00 0.00 0.00 89 1006.5
20260831143539 5 74 0.0 4.8 0.00 0.00 0.00 89 1006.5
20260831143057 5 76 3.2 6.4 0.00 0.00 0.00 90 1006.6
20260831142540 5 62 1.6 6.4 0.00 0.00 0.00 90 1006.5
20260831142039 5 123 4.8 6.4 0.00 0.00 0.00 90 1006.7
20260831141607 5 80 1.6 4.8 0.00 0.00 0.00 90 1006.7
20260831141040 5 0 0.0 4.8 0.00 0.00 0.00 90 1006.6
20260831140541 5 66 0.0 4.8 0.00 0.00 0.00 91 1006.5
20260831140052 5 0 0.0 6.4 0.00 0.00 0.00 90 1006.5
20260831135539 5 0 1.6 6.4 0.00 0.00 0.00 90 1006.5
20260831135039 5 88 3.2 6.4 0.00 0.00 0.00 90 1006.4
20260831134550 5 61 0.0 1.6 0.00 0.00 0.00 90 1006.2
20260831134039 5 0 0.0 1.6 0.00 0.00 0.00 90 1006.1
20260831133539 5 61 0.0 1.6 0.00 0.00 0.00 91 1006.0
20260831133047 5 61 0.0 6.4 0.00 0.00 0.00 91 1006.0
20260831132539 5 0 3.2 6.4 0.00 0.00 0.00 91 1005.8
20260831132040 5 0 0.0 1.6 0.00 0.00 0.00 91 1005.8
20260831131601 5 124 0.0 1.6 0.00 0.00 0.00 91 1005.7
20260831131040 5 124 0.0 1.6 0.00 0.00 0.00 91 1005.6
20260831130540 5 124 0.0 1.6 0.00 0.00 0.00 90 1005.4
20260831130053 5 124 0.0 3.2 0.00 0.00 0.00 91 1005.3
20260831125541 5 124 0.0 3.2 0.00 0.00 0.00 90 1005.3
20260831125040 5 124 1.6 3.2 0.00 0.00 0.00 91 1005.2
20260831124548 4 0 0.0 3.2 0.00 0.00 0.00 90 1005.2
20260831124040 4 0 0.0 3.2 0.00 0.00 0.00 89 1005.2
20260831123539 5 127 1.6 3.2 0.00 0.00 0.00 87 1005.1
20260831123047 5 0 0.0 0.0 0.00 0.00 0.00 88 1005.1
20260831122539 5 230 0.0 1.6 0.00 0.00 0.00 89 1005.0
20260831122042 5 230 0.0 1.6 0.00 0.00 0.00 89 1004.9
20260831121558 5 0 0.0 0.0 0.00 0.00 0.00 86 1004.9
20260831121038 5 0 0.0 0.0 0.00 0.00 0.00 85 1004.8
20260831120538 6 0 0.0 1.6 0.00 0.00 0.00 87 1004.9
20260831120109 6 0 0.0 3.2 0.00 0.00 0.00 87 1004.6
20260831115539 6 230 0.0 4.8 0.00 0.00 0.00 86 1004.7
20260831115039 6 230 3.2 4.8 0.00 0.00 0.00 87 1004.5
20260831114602 6 230 1.6 3.2 0.00 0.00 0.00 86 1004.4
20260831114039 6 230 1.6 4.8 0.00 0.00 0.00 86 1004.4
20260831113540 6 232 1.6 4.8 0.00 0.00 0.00 85 1004.2
20260831113101 6 236 3.2 6.4 0.00 0.00 0.00 84 1004.2
20260831112539 7 249 4.8 6.4 0.00 0.00 0.00 85 1004.1
20260831112038 7 250 4.8 8.0 0.00 0.00 0.00 85 1004.0
20260831111556 7 250 6.4 8.0 0.00 0.00 0.00 85 1004.0
20260831111038 7 250 4.8 8.0 0.00 0.00 0.00 86 1004.0
20260831110540 7 242 4.8 6.4 0.00 0.00 0.00 86 1004.0
20260831110049 7 244 3.2 4.8 0.00 0.00 0.00 86 1004.0
20260831105540 7 244 3.2 4.8 0.00 0.00 0.00 85 1004.0
20260831105039 7 244 3.2 6.4 0.00 0.00 0.00 85 1003.9
20260831104606 7 244 3.2 6.4 0.00 0.00 0.00 85 1003.9
20260831104039 7 246 3.2 6.4 0.00 0.00 0.00 86 1003.9
20260831103538 7 220 3.2 4.8 0.00 0.00 0.00 86 1003.9
20260831103056 7 219 3.2 4.8 0.00 0.00 0.00 85 1003.8
20260831102538 7 219 4.8 6.4 0.00 0.00 0.00 84 1003.7
20260831102038 7 219 3.2 8.0 0.00 0.00 0.00 83 1003.8
20260831101603 7 219 4.8 8.0 0.00 0.00 0.00 82 1003.8
20260831101040 8 227 6.4 8.0 0.00 0.00 0.00 81 1003.7
20260831100538 8 227 6.4 8.0 0.00 0.00 0.00 80 1003.7
20260831100052 8 222 6.4 9.7 0.00 0.00 0.00 79 1003.5
20260831095535 9 229 6.4 11.3 0.00 0.00 0.00 78 1003.3
20260831095039 10 229 8.0 14.5 0.00 0.00 0.00 77 1003.2
20260831094558 10 228 9.7 14.5 0.00 0.00 0.00 75 1003.1
20260831094039 10 232 11.3 20.9 0.00 0.00 0.00 73 1003.0
20260831093540 11 238 11.3 20.9 0.00 0.00 0.00 71 1003.0
20260831093059 11 246 14.5 20.9 0.00 0.00 0.00 69 1002.9
20260831092539 11 249 12.9 19.3 0.00 0.00 0.00 71 1002.8
20260831092040 11 249 11.3 19.3 0.00 0.00 0.00 74 1002.7
20260831091553 11 245 12.9 19.3 0.00 0.00 0.00 75 1002.7
20260831091038 11 248 8.0 16.1 0.00 0.00 0.00 77 1002.7
20260831090539 11 258 9.7 20.9 0.00 0.00 0.00 76 1002.6
20260831090057 11 262 11.3 25.7 0.00 0.00 0.00 75 1002.6
20260831085539 11 267 12.9 25.7 0.00 0.00 0.00 77 1002.3
20260831085039 11 243 8.0 22.5 0.00 0.00 0.00 77 1002.4
20260831084557 11 248 9.7 22.5 0.00 0.00 0.00 77 1002.3
20260831084038 11 267 12.9 22.5 0.00 0.00 0.00 77 1002.3
20260831083538 11 294 9.7 24.1 0.00 0.00 0.00 77 1002.3
20260831083057 11 279 11.3 27.4 0.00 0.00 0.00 75 1002.1
20260831082538 11 265 14.5 27.4 0.00 0.00 0.00 74 1002.1
20260831082039 11 232 14.5 29.0 0.00 0.00 0.00 75 1001.9
20260831081604 12 277 16.1 29.0 0.00 0.00 0.00 73 1001.8
20260831081038 11 270 19.3 29.0 0.00 0.00 0.00 71 1001.6
20260831080539 12 276 16.1 32.2 0.00 0.00 0.00 71 1001.4
20260831080058 11 275 19.3 32.2 0.00 0.00 0.00 69 1001.4
20260831075539 12 254 19.3 38.6 0.00 0.00 0.00 68 1001.2
20260831075039 12 244 19.3 38.6 0.00 0.00 0.00 67 1001.4
20260831074559 12 316 20.9 38.6 0.00 0.00 0.00 71 1001.3
20260831074039 11 237 19.3 32.2 0.00 0.00 0.00 76 1001.3
20260831073539 11 257 16.1 32.2 0.00 0.00 0.00 78 1000.9
20260831073055 12 269 17.7 32.2 0.00 0.00 0.00 78 1000.6
20260831072539 11 247 17.7 43.5 0.00 0.00 0.00 77 1000.4
20260831072038 11 267 17.7 45.1 0.00 0.00 0.00 78 1000.5
20260831071551 11 250 19.3 45.1 0.00 0.00 0.00 81 1000.3
20260831071039 11 297 11.3 33.8 0.00 0.00 0.00 81 1000.3
20260831070539 11 267 19.3 33.8 0.00 0.00 0.00 80 1000.2
20260831070109 11 271 19.3 40.2 0.00 0.00 0.00 80 1000.2
20260831065541 11 288 22.5 40.2 0.00 0.00 0.00 80 1000.1
20260831065039 11 252 20.9 43.5 0.00 0.00 0.00 80 1000.2
20260831064552 11 294 25.7 43.5 0.00 0.00 0.00 80 1000.1
20260831064038 11 290 25.7 37.0 0.00 0.00 0.00 80 1000.1
20260831063539 11 273 25.7 43.5 0.00 0.00 0.00 80 1000.1
20260831063051 11 264 29.0 45.1 0.00 0.00 0.00 80 999.8
20260831062540 11 300 29.0 46.7 0.00 0.00 0.00 80 999.7
20260831062039 11 291 27.4 46.7 0.00 0.00 0.00 81 999.5
20260831061607 11 286 29.0 48.3 0.00 0.00 0.00 81 999.7
20260831061039 12 286 30.6 48.3 0.00 0.00 0.00 82 999.4
20260831060539 12 257 25.7 51.5 0.00 0.00 0.00 82 999.5
20260831060110 12 284 29.0 51.5 0.00 0.00 0.00 82 999.5
20260831055538 12 319 27.4 49.9 0.00 0.00 0.00 81 999.5
20260831055041 12 276 27.4 51.5 0.00 0.00 0.00 81 999.5
20260831054555 12 259 25.7 51.5 0.00 0.00 0.00 80 999.5
20260831054041 12 294 20.9 45.1 0.00 0.00 0.00 80 999.5
20260831053538 12 265 24.1 48.3 0.00 0.00 0.00 79 999.3
20260831053141 12 232 22.5 48.3 0.00 0.00 0.00 78 999.3
20260831052538 12 289 20.9 48.3 0.00 0.00 0.00 79 999.3
20260831052042 12 259 19.3 48.3 0.00 0.00 0.00 78 999.2
20260831051547 12 252 22.5 45.1 0.00 0.00 0.00 79 999.1
20260831051038 12 256 30.6 43.5 0.00 0.00 0.00 78 999.1
20260831050538 12 269 29.0 43.5 0.00 0.00 0.00 79 999.0
20260831050108 12 269 25.7 41.8 0.00 0.00 0.00 79 998.9
20260831045538 13 302 24.1 46.7 0.00 0.00 0.00 79 999.0
20260831045039 13 274 24.1 48.3 0.00 0.00 0.00 78 999.0
20260831044602 13 268 30.6 49.9 0.00 0.00 0.00 77 998.9
20260831044038 13 261 30.6 51.5 0.00 0.00 0.00 77 998.9
20260831043538 13 290 35.4 54.7 0.00 0.00 0.00 77 999.0
20260831043059 13 305 33.8 56.3 0.00 0.00 0.00 77 999.0
20260831042539 13 280 37.0 61.2 0.00 0.00 0.00 77 998.9
20260831042036 13 290 32.2 61.2 0.00 0.00 0.00 77 999.0
20260831041610 13 293 33.8 54.7 0.00 0.00 0.00 77 999.1
20260831041036 13 301 32.2 54.7 0.00 0.00 0.00 77 999.0
20260831040536 13 287 33.8 54.7 0.00 0.00 0.00 77 999.0
20260831040058 13 255 29.0 57.9 0.00 0.00 0.00 76 999.2
20260831035537 13 291 32.2 57.9 0.00 0.00 0.00 78 999.2
20260831035037 13 271 33.8 57.9 0.00 0.00 0.00 78 999.1
20260831034559 13 279 27.4 54.7 0.00 0.00 0.00 77 999.1
20260831034042 13 288 27.4 48.3 0.00 0.00 0.00 78 999.0
20260831033539 13 250 25.7 48.3 0.00 0.00 0.00 79 999.1
20260831033110 13 271 24.1 48.3 0.00 0.00 0.00 79 999.0
20260831032537 13 261 27.4 51.5 0.00 0.00 0.00 80 999.2
20260831032036 13 246 24.1 54.7 0.00 0.00 0.00 80 999.4
20260831031555 13 266 24.1 54.7 0.00 0.00 0.00 79 999.4
20260831031036 13 276 24.1 62.8 0.00 0.00 0.00 79 999.2
20260831030536 13 263 27.4 62.8 0.00 0.00 0.00 77 999.1
20260831030103 13 264 29.0 62.8 0.00 0.00 0.00 78 999.1
20260831025540 14 248 29.0 57.9 0.00 0.00 0.00 78 999.2
20260831025037 14 265 29.0 56.3 0.00 0.00 0.00 78 999.1
20260831024559 14 265 27.4 49.9 0.00 0.00 0.00 77 998.9
20260831024036 13 299 27.4 53.1 0.00 0.00 0.00 78 999.0
20260831023536 14 283 25.7 53.1 0.00 0.00 0.00 78 998.9
20260831023103 14 277 29.0 54.7 0.00 0.00 0.00 78 998.9
20260831022536 13 268 20.9 54.7 0.00 0.00 0.00 80 998.9
20260831022036 14 282 22.5 53.1 0.00 0.00 0.00 78 999.1
20260831021553 14 272 27.4 53.1 0.00 0.00 0.00 77 999.1
20260831021044 14 246 25.7 61.2 0.00 0.00 0.00 77 999.2
20260831020541 14 286 30.6 61.2 0.00 0.00 0.00 77 999.1
20260831020106 14 280 30.6 61.2 0.00 0.00 0.00 76 999.1
20260831015536 13 269 29.0 61.2 0.00 0.00 0.00 79 999.1
20260831015036 13 291 27.4 49.9 0.00 0.00 0.00 79 999.3
20260831014547 13 258 24.1 61.2 0.00 0.00 0.00 79 999.4
20260831014036 14 302 29.0 61.2 0.00 0.00 0.00 77 999.4
20260831013536 14 293 25.7 51.5 0.00 0.00 0.00 79 999.4
20260831013059 14 250 25.7 59.5 0.00 0.00 0.00 78 999.7
20260831012539 14 256 30.6 59.5 0.00 0.00 0.00 76 999.6
20260831012040 14 269 30.6 56.3 0.00 0.00 0.00 78 999.7
20260831011550 14 261 25.7 59.5 0.00 0.00 0.00 80 999.6
20260831011039 14 289 29.0 64.4 0.00 0.00 0.00 79 999.7
20260831010539 14 297 33.8 64.4 0.00 0.00 0.00 79 999.5
20260831010049 14 230 25.7 48.3 0.00 0.00 0.00 78 999.6
20260831005536 14 306 25.7 57.9 0.00 0.00 0.00 78 999.6
20260831005040 13 248 30.6 57.9 0.00 0.00 0.00 78 999.6
20260831004600 13 248 25.7 56.3 0.00 0.00 0.00 78 999.6
20260831004036 13 294 27.4 56.3 0.00 0.00 0.00 77 999.8
20260831003539 14 254 27.4 56.3 0.00 0.00 0.00 78 1000.0
20260831003056 14 279 24.1 56.3 0.00 0.00 0.00 78 999.9
20260831002539 14 278 30.6 61.2 0.00 0.00 0.00 78 999.9
20260831002039 14 242 24.1 61.2 0.00 0.00 0.00 78 1000.0
20260831001559 13 284 40.2 62.8 0.00 0.00 0.00 79 999.8
20260831001039 13 300 25.7 62.8 0.00 0.00 0.00 78 999.8
20260831000538 13 307 32.2 62.8 0.00 0.00 0.00 77 999.9
20260831000054 14 261 27.4 77.2 0.00 0.00 0.00 76 999.9
20260830235540 14 259 45.1 77.2 0.00 0.00 0.00 75 999.8
20260830235039 14 263 30.6 57.9 0.00 0.00 0.00 79 1000.0
20260830234549 14 18 32.2 64.4 0.00 0.00 0.00 78 999.9
20260830234039 14 259 38.6 64.4 0.00 0.00 0.00 78 999.6
20260830233542 14 302 38.6 64.4 0.00 0.00 0.00 78 999.8